SCP
-0 -0 0 0 -0 -0 -0 -0 -0 -0 -0 -0 -0 -0 -0 -0 -0 -0 -0 -0 -0 -0 -0 -0 -0 -0 -0 -0 -0 -0 -0 -0 -0 -0 -0 -0 -0 -0 -0 -0 -0 -0 -0
-0 0 -0 -0 -0 -0 -0 -0 -0 -0 -0 -0 -0 -0 -0 -0 -0 -0 -0 -0 -0 -0 -0 -0 -0 -0 -0 -0 -0 -0 -0 -0 -0 -0 -0 -0 -0 -0 -0 -0 -0 -0 -0
-0 -0 -0 -0 -0 -0 -0 -0 -0 -0 -0 -0 -0 -0 -0 -0 -0 -0 -0 -0 -0 -0 -0 -0 -0 -0 -0 -0 -0 -0 -0 -0 -0 -0 -0 0 -0 -0 -0 -0 -0 -0 -0
0 -0 -0 -0 -0 -0 -0 -0 -0 -0 -0 -0 -0 -0 -0 -0 -0 -0 -0 -0 -0 -0 -0 -0 -0 -0 -0 -0 -0 -0 -0 -0 -0 -0 -0 -0 -0 -0 -0 -0 -0 -0 -0
-0 -0 -0 -0 -0 -0 -0 -0 -0 -0 -0 -0 -0 -0 -0 -0 -0 0 -0 -0 -0 -0 -0 -0 -0 -0 -0 -0 -0 -0 -0 -0 -0 -0 -0 -0 -0 -0 -0 -0 -0 -0 -0
-0 -0 -0 -0 -0 -0 -0 -0 -0 -0 -0 -0 -0 -0 -0 -0 0 0 -0 -0 -0 -0 -0 -0 -0 -0 -0 -0 -0 -0 -0 -0 -0 -0 0 0 0 -0 -0 -0 -0 -0 -0
-0 -0 -0 -0 -0 -0 -0 -0 -0 -0 -0 -0 -0 -0 -0 -0 -0 0 0 -0 -0 -0 -0 -0 -0 -0 -0 -0 -0 -0 -0 -0 -0 0 0 0 0 -0 -0 -0 -0 -0 -0
-0 -0 -0 -0 -0 -0 -0 -0 -0 -0 -0 -0 -0 -0 -0 -0 -0 -0 -0 -0 -0 -0 -0 -0 -0 -0 -0 -0 -0 -0 -0 -0 0 0 0 0 -0 -0 -0 -0 -0 -0 -0
-0 -0 -0 -0 -0 -0 -0 -0 -0 -0 -0 -0 -0 -0 -0 -0 -0 -0 -0 -0 -0 -0 -0 -0 -0 -0 -0 -0 -0 -0 -0 -0 0 0 0 0 -0 -0 -0 -0 -0 -0 -0
-0 -0 -0 -0 -0 -0 -0 -0 -0 -0 -0 -0 -0 -0 -0 -0 -0 -0 -0 -0 -0 -0 -0 -0 -0 -0 -0 -0 -0 -0 -0 -0 0 0 0 0 -0 -0 -0 -0 -0 -0 -0
0 0 0 0 0 0 0 0 -0 -0 -0 -0 0 -0 0 0 0 0 0 -0 -0 -0 -0 -0 -0 -0 -0 -0 -0 -0 -0 0 0 0 0 -0 -0 -0 -0 0 0 0 0
0 0 0 0 0 0 0 0 0 0 0 0 0 0 0 0 0 0 0 0 0 -0 -0 -0 -0 -0 0 0 0 0 0 0 0 0 0 0 0 0 0 0 -0 0 0
0 0 0 0 0 0 0 0 0 0 0 0 0 0 0 0 0 0 0 0 0 0 0 0 0 0 0 0 0 0 0 0 0 0 0 0 -0 -0 0 0 0 0 0
0 0 0 0 0 0 0 0 0 0 0 0 0 0 0 0 0 0 0 0 0 0 0 0 0 0 0 0 0 0 0 0 0 0 0 0 0 0 0 0 0 0 0
0 0 0 0 0 0 0 0 0 0 0 0 0 0 0 0 0 0 0 0 0 0 0 0 0 0 0 0 0 0 0 0 0 0 0 0 0 0 0 0 0 0 0
0 0 0 0 0 0 0 0 0 0 0 0 0 0 0 0 0 0 0 0 0 0 0 0 0 0 0 0 0 0 0 0 0 0 0 0 0 0 0 0 0 0 0
0 0 0 0 0 0 0 0 0 0 0 0 0 0 0 0 0 0 0 0 0 0 0 0 0 0 0 0 0 0 0 0 0 0 0 0 0 0 0 0 0 0 0
0 0 0 0 0 0 0 0 0 0 0 0 0 0 0 0 0 0 0 0 0 0 0 0 0 0 0 0 0 0 0 0 0 0 0 0 0 0 0 0 0 0 0
0 0 0 0 0 0 0 0 0 0 0 0 0 0 0 0 0 0 0 0 0 0 0 0 0 0 0 0 0 0 0 0 0 0 0 0 0 0 0 0 0 0 0
0 0 0 0 0 0 0 0 0 0 0 0 0 0 0 0 0 0 0 0 0 0 0 0 0 0 0 0 0 0 0 0 0 0 0 0 0 0 0 0 0 0 0
0 0 0 0 0 0 0 0 0 0 0 0 0 0 0 0 0 0 0 0 0 0 0 0 0 0 0 0 0 0 0 0 0 0 0 0 0 0 0 0 0 0 0
0 0 0 0 0 0 0 0 0 0 0 0 0 0 0 0 0 0 0 0 0 0 0 0 0 0 0 0 0 0 0 0 0 0 0 0 0 0 0 0 0 0 0
0 0 0 0 0 0 0 0 0 0 0 0 0 0 0 0 0 0 0 0 0 0 0 0 0 0 0 0 0 0 0 0 0 0 0 0 0 0 0 0 0 0 0
0 0 0 0 0 0 0 0 0 0 0 0 0 0 0 0 0 0 0 0 0 0 0 0 0 0 0 0 0 0 0 0 0 0 0 0 0 0 0 0 0 0 0
0 0 0 0 0 0 0 0 0 0 0 0 0 0 0 0 0 0 0 0 0 0 0 0 0 0 0 0 0 0 0 0 0 0 0 0 0 0 0 0 0 0 0
0 0 0 0 0 0 0 0 0 0 0 0 0 0 0 0 0 0 0 0 0 0 0 0 0 0 0 0 0 0 0 0 0 0 0 0 0 0 0 0 0 0 0
Wind_Speed_500mb
23 21 26 29 27 25 25 26 28 27 26 28 32 33 34 35 34 31 32 32 32 31 28 25 25 23 27 29 31 27 30 34 36 34 33 36 38 26 24 21 23 26 30
27 25 26 27 28 28 26 24 25 24 22 23 27 31 33 34 35 34 31 31 30 29 26 24 24 23 25 28 27 26 29 32 33 32 30 30 30 30 26 26 23 21 21
27 28 26 26 28 26 26 25 23 23 19 20 23 29 33 36 36 36 34 31 30 29 26 24 23 22 22 24 23 26 28 31 33 34 33 34 35 37 36 33 31 27 22
30 28 28 26 25 23 20 18 19 20 15 19 20 25 29 33 33 33 32 31 30 28 27 23 21 20 20 20 21 24 26 29 31 32 33 36 37 39 38 38 36 34 30
30 26 27 26 23 20 19 17 16 15 12 14 17 21 24 28 31 35 35 31 29 29 28 24 22 21 20 20 21 24 25 28 31 30 33 36 37 39 38 38 37 35 32
28 27 26 25 23 21 19 18 15 12 8 10 14 17 20 23 29 33 34 31 29 28 29 27 24 23 22 21 22 23 25 28 28 28 31 34 36 35 35 35 36 35 34
28 27 25 24 22 20 20 18 15 12 7 6 11 13 16 20 26 32 36 39 32 27 27 27 27 26 26 24 23 23 23 24 24 25 29 32 36 36 34 33 32 32 33
25 23 22 23 21 19 19 17 14 12 10 9 10 11 12 16 21 26 30 36 37 30 29 27 26 26 25 24 23 23 23 24 22 24 27 32 36 41 42 40 37 35 34
36 34 30 25 26 23 20 16 13 13 11 10 9 10 8 11 15 19 22 31 34 34 32 29 27 25 24 25 26 26 24 23 22 26 27 31 31 39 39 40 41 42 44
39 38 37 33 28 25 23 20 16 14 13 12 11 8 6 6 9 13 13 22 27 29 29 26 27 26 24 23 23 24 24 24 25 25 27 32 30 34 32 25 26 27 30
43 42 39 35 33 32 28 22 21 18 18 16 14 11 9 7 6 5 8 13 16 18 24 25 24 22 24 24 23 23 20 23 23 25 29 29 35 37 35 33 30 28 26
46 46 43 41 35 35 32 28 25 23 22 18 17 15 12 10 10 8 2 1 6 10 12 14 16 18 18 20 22 20 20 21 21 23 29 29 36 41 38 39 37 36 35
44 46 46 45 42 41 38 36 32 32 28 24 21 20 18 16 13 15 11 7 5 6 6 5 6 10 11 12 14 16 20 20 21 22 22 19 17 26 28 33 32 34 35
45 45 47 48 47 43 46 43 39 39 35 30 27 27 25 22 22 24 22 8 11 11 7 3 3 3 5 7 8 10 13 16 18 20 20 19 22 25 26 28 33 40 44
46 45 46 47 47 48 49 49 43 43 40 37 37 36 33 25 26 19 23 14 16 12 7 4 2 1 1 4 4 7 9 13 14 15 16 17 21 24 27 29 33 35 42
47 47 47 48 48 49 51 50 48 46 42 47 43 42 39 33 33 30 25 19 20 20 11 8 6 3 2 4 6 9 10 12 13 15 18 21 23 26 28 29 30 32 36
48 49 48 48 48 50 50 52 50 52 49 45 43 42 41 41 37 38 33 25 25 22 17 14 11 9 8 10 12 13 12 14 16 18 21 24 25 27 28 29 30 30 30
52 52 49 48 47 47 48 53 50 50 47 44 43 43 39 40 39 36 31 30 29 24 22 16 16 16 16 17 18 17 14 14 15 16 19 22 25 29 31 34 35 33 33
56 55 52 50 48 47 47 52 50 49 46 46 46 45 42 43 49 37 35 34 29 23 22 20 20 18 22 23 19 17 14 11 11 14 17 22 28 31 35 36 36 36 35
62 60 57 55 50 47 46 52 52 48 51 49 43 47 44 46 38 44 37 31 27 27 26 25 24 26 22 21 22 17 13 8 7 11 17 22 28 33 35 35 34 34 35
68 68 65 61 55 50 51 55 58 55 55 52 52 49 51 49 48 43 36 33 32 30 26 27 30 27 29 24 18 17 11 4 2 11 17 22 26 31 32 32 35 37 40
73 71 69 66 60 55 54 55 61 55 56 54 52 51 48 46 42 40 39 36 36 33 32 30 27 28 26 25 15 12 11 6 8 7 13 19 26 28 29 32 35 37 40
81 78 73 70 65 59 59 61 62 58 59 62 61 57 53 43 46 45 40 39 38 35 34 32 26 19 19 21 18 10 10 10 8 6 6 15 22 24 28 30 32 36 41
86 81 77 73 69 64 61 62 66 66 71 67 58 56 54 46 51 46 42 43 43 41 34 31 28 22 17 15 19 15 11 8 9 9 5 9 19 21 23 27 31 35 40
90 88 82 78 73 68 65 67 65 66 66 63 60 59 57 54 53 49 49 49 46 40 36 32 29 26 22 17 14 15 10 6 4 3 4 9 15 20 23 26 30 33 40
74 87 86 82 77 73 70 70 72 71 69 69 69 66 62 58 58 57 56 52 46 42 38 35 30 24 17 14 12 8 5 3 1 5 8 15 17 21 24 28 31 33 40
Wind_Direction_500mb
153 141 133 139 133 123 122 122 116 107 94 81 73 70 67 66 67 71 72 74 77 78 78 76 76 75 73 73 70 73 65 59 55 54 50 56 54 64 67 68 65 66 67
154 149 145 145 140 133 132 120 113 107 96 82 75 72 71 71 68 70 74 74 74 75 75 76 76 73 72 78 79 66 58 51 44 44 40 37 44 53 61 62 64 62 63
158 153 147 148 144 138 132 125 116 105 99 79 70 66 67 68 68 67 69 70 69 72 70 67 68 66 67 63 60 53 46 41 41 40 42 45 45 45 44 49 47 49 55
162 157 155 155 153 145 135 124 113 108 100 80 73 67 72 75 73 72 71 70 71 72 75 75 75 72 69 66 60 53 43 38 38 40 47 50 50 49 48 48 48 49 48
164 163 161 162 162 154 146 138 128 117 116 88 82 79 77 70 65 60 59 63 70 73 75 75 71 70 66 61 55 49 44 46 52 52 52 53 50 48 46 45 46 45 45
167 169 168 169 168 166 159 155 150 141 126 84 91 86 79 68 63 59 53 53 62 70 75 78 79 82 80 75 67 61 60 61 58 56 54 56 55 52 49 48 46 45 44
173 174 177 174 173 173 170 168 161 157 140 108 104 104 88 73 63 58 57 57 53 61 70 75 77 78 81 82 80 76 72 67 66 66 64 62 58 53 53 51 48 45 44
177 182 187 186 182 174 180 179 175 170 158 140 127 119 95 71 67 63 67 58 55 61 63 66 70 73 73 75 75 73 70 66 63 62 64 64 58 55 49 47 45 42 39
175 187 185 198 192 186 186 187 189 182 169 155 151 141 107 85 71 69 67 60 63 68 67 65 62 64 68 67 64 62 63 66 60 59 56 55 55 56 58 58 56 49 43
184 191 192 201 205 205 198 198 200 201 195 187 176 162 150 120 95 81 62 60 61 76 68 64 64 64 62 61 61 58 54 54 52 53 54 51 43 44 41 44 46 46 55
195 200 203 203 204 204 206 212 210 208 206 200 199 194 197 181 145 129 50 61 70 77 69 61 60 65 62 59 55 53 51 54 54 56 56 46 43 43 37 34 33 29 27
203 207 210 212 211 210 208 215 213 219 220 221 213 207 211 214 194 178 242 16 109 94 85 71 61 65 61 55 52 52 51 52 51 55 61 53 56 57 50 49 41 37 27
213 216 220 222 228 219 215 215 220 221 221 214 211 207 217 212 227 218 211 275 212 163 142 84 52 55 51 41 42 45 49 50 50 50 59 54 42 35 37 35 36 33 28
222 224 226 226 229 227 221 220 224 225 227 220 217 232 232 215 216 232 205 247 267 208 189 188 151 44 52 42 35 43 45 47 47 47 52 37 29 33 35 30 30 37 40
227 230 230 231 231 229 228 231 220 224 222 221 222 229 231 233 229 228 205 247 258 243 244 256 224 100 114 7 22 56 52 53 50 45 43 42 37 36 32 26 28 29 35
229 231 231 232 233 233 232 228 222 218 220 224 226 226 231 233 229 219 216 244 244 238 228 220 198 173 145 67 77 92 84 76 68 62 53 41 36 32 28 26 24 22 23
232 233 235 234 234 234 233 229 223 219 220 222 224 221 223 227 229 223 238 237 247 235 230 216 227 172 157 138 131 119 102 85 68 53 41 34 29 25 20 18 15 16 13
235 235 236 236 236 236 232 226 222 218 220 222 221 219 224 222 222 236 229 241 233 233 215 213 178 175 164 149 133 119 97 81 63 47 34 26 18 17 14 16 14 11 7
239 239 239 239 238 236 230 220 218 215 217 218 223 222 221 224 230 217 232 245 232 220 202 184 183 180 160 147 139 121 107 86 60 40 20 13 14 12 10 10 8 4 4
238 239 240 240 238 234 225 219 209 210 218 218 215 218 218 209 225 230 233 234 215 199 189 184 186 167 162 154 142 134 125 99 46 11 5 8 8 6 4 1 1 5 6
239 238 238 239 238 233 219 215 207 209 213 217 218 222 222 226 224 226 225 212 201 192 191 183 177 171 159 156 156 146 145 143 358 359 5 3 2 3 1 3 7 5 4
241 240 238 237 236 234 222 218 213 211 212 214 217 215 217 221 227 218 211 207 200 191 185 179 183 177 169 166 180 176 177 213 259 319 344 356 0 0 358 1 0 359 358
240 239 238 236 234 231 222 214 210 209 213 215 212 216 218 221 214 209 206 204 196 186 184 177 177 182 185 186 188 200 179 192 191 254 314 348 350 353 358 357 358 358 358
244 240 237 233 232 229 223 213 215 220 210 211 216 214 216 215 211 206 202 195 188 184 185 181 176 182 185 193 186 199 203 198 182 191 234 317 338 344 351 354 356 356 356
243 239 235 229 228 227 220 216 216 216 220 216 215 216 214 213 208 201 193 188 187 184 185 184 184 185 189 192 191 187 182 177 170 173 196 319 336 346 351 352 352 352 351
244 237 232 228 226 225 220 216 214 215 214 217 214 212 210 209 202 193 188 188 188 189 191 188 186 185 185 182 179 182 189 179 53 354 332 326 333 341 341 340 342 342 343
Wind_Speed_850mb
23 21 26 29 27 25 25 26 28 27 26 28 32 33 34 35 34 31 32 32 32 31 28 25 25 23 27 29 31 27 30 34 36 34 33 36 38 26 24 21 23 26 30
27 25 26 27 28 28 26 24 25 24 22 23 27 31 33 34 35 34 31 31 30 29 26 24 24 23 25 28 27 26 29 32 33 32 30 30 30 30 26 26 23 21 21
27 28 26 26 28 26 26 25 23 23 19 20 23 29 33 36 36 36 34 31 30 29 26 24 23 22 22 24 23 26 28 31 33 34 33 34 35 37 36 33 31 27 22
30 28 28 26 25 23 20 18 19 20 15 19 20 25 29 33 33 33 32 31 30 28 27 23 21 20 20 20 21 24 26 29 31 32 33 36 37 39 38 38 36 34 30
30 26 27 26 23 20 19 17 16 15 12 14 17 21 24 28 31 35 35 31 29 29 28 24 22 21 20 20 21 24 25 28 31 30 33 36 37 39 38 38 37 35 32
28 27 26 25 23 21 19 18 15 12 8 10 14 17 20 23 29 33 34 31 29 28 29 27 24 23 22 21 22 23 25 28 28 28 31 34 36 35 35 35 36 35 34
28 27 25 24 22 20 20 18 15 12 7 6 11 13 16 20 26 32 36 39 32 27 27 27 27 26 26 24 23 23 23 24 24 25 29 32 36 36 34 33 32 32 33
25 23 22 23 21 19 19 17 14 12 10 9 10 11 12 16 21 26 30 36 37 30 29 27 26 26 25 24 23 23 23 24 22 24 27 32 36 41 42 40 37 35 34
36 34 30 25 26 23 20 16 13 13 11 10 9 10 8 11 15 19 22 31 34 34 32 29 27 25 24 25 26 26 24 23 22 26 27 31 31 39 39 40 41 42 44
39 38 37 33 28 25 23 20 16 14 13 12 11 8 6 6 9 13 13 22 27 29 29 26 27 26 24 23 23 24 24 24 25 25 27 32 30 34 32 25 26 27 30
43 42 39 35 33 32 28 22 21 18 18 16 14 11 9 7 6 5 8 13 16 18 24 25 24 22 24 24 23 23 20 23 23 25 29 29 35 37 35 33 30 28 26
46 46 43 41 35 35 32 28 25 23 22 18 17 15 12 10 10 8 2 1 6 10 12 14 16 18 18 20 22 20 20 21 21 23 29 29 36 41 38 39 37 36 35
44 46 46 45 42 41 38 36 32 32 28 24 21 20 18 16 13 15 11 7 5 6 6 5 6 10 11 12 14 16 20 20 21 22 22 19 17 26 28 33 32 34 35
45 45 47 48 47 43 46 43 39 39 35 30 27 27 25 22 22 24 22 8 11 11 7 3 3 3 5 7 8 10 13 16 18 20 20 19 22 25 26 28 33 40 44
46 45 46 47 47 48 49 49 43 43 40 37 37 36 33 25 26 19 23 14 16 12 7 4 2 1 1 4 4 7 9 13 14 15 16 17 21 24 27 29 33 35 42
47 47 47 48 48 49 51 50 48 46 42 47 43 42 39 33 33 30 25 19 20 20 11 8 6 3 2 4 6 9 10 12 13 15 18 21 23 26 28 29 30 32 36
48 49 48 48 48 50 50 52 50 52 49 45 43 42 41 41 37 38 33 25 25 22 17 14 11 9 8 10 12 13 12 14 16 18 21 24 25 27 28 29 30 30 30
52 52 49 48 47 47 48 53 50 50 47 44 43 43 39 40 39 36 31 30 29 24 22 16 16 16 16 17 18 17 14 14 15 16 19 22 25 29 31 34 35 33 33
56 55 52 50 48 47 47 52 50 49 46 46 46 45 42 43 49 37 35 34 29 23 22 20 20 18 22 23 19 17 14 11 11 14 17 22 28 31 35 36 36 36 35
62 60 57 55 50 47 46 52 52 48 51 49 43 47 44 46 38 44 37 31 27 27 26 25 24 26 22 21 22 17 13 8 7 11 17 22 28 33 35 35 34 34 35
68 68 65 61 55 50 51 55 58 55 55 52 52 49 51 49 48 43 36 33 32 30 26 27 30 27 29 24 18 17 11 4 2 11 17 22 26 31 32 32 35 37 40
73 71 69 66 60 55 54 55 61 55 56 54 52 51 48 46 42 40 39 36 36 33 32 30 27 28 26 25 15 12 11 6 8 7 13 19 26 28 29 32 35 37 40
81 78 73 70 65 59 59 61 62 58 59 62 61 57 53 43 46 45 40 39 38 35 34 32 26 19 19 21 18 10 10 10 8 6 6 15 22 24 28 30 32 36 41
86 81 77 73 69 64 61 62 66 66 71 67 58 56 54 46 51 46 42 43 43 41 34 31 28 22 17 15 19 15 11 8 9 9 5 9 19 21 23 27 31 35 40
90 88 82 78 73 68 65 67 65 66 66 63 60 59 57 54 53 49 49 49 46 40 36 32 29 26 22 17 14 15 10 6 4 3 4 9 15 20 23 26 30 33 40
74 87 86 82 77 73 70 70 72 71 69 69 69 66 62 58 58 57 56 52 46 42 38 35 30 24 17 14 12 8 5 3 1 5 8 15 17 21 24 28 31 33 40
Wind_Direction_850mb
153 141 133 139 133 123 122 122 116 107 94 81 73 70 67 66 67 71 72 74 77 78 78 76 76 75 73 73 70 73 65 59 55 54 50 56 54 64 67 68 65 66 67
154 149 145 145 140 133 132 120 113 107 96 82 75 72 71 71 68 70 74 74 74 75 75 76 76 73 72 78 79 66 58 51 44 44 40 37 44 53 61 62 64 62 63
158 153 147 148 144 138 132 125 116 105 99 79 70 66 67 68 68 67 69 70 69 72 70 67 68 66 67 63 60 53 46 41 41 40 42 45 45 45 44 49 47 49 55
162 157 155 155 153 145 135 124 113 108 100 80 73 67 72 75 73 72 71 70 71 72 75 75 75 72 69 66 60 53 43 38 38 40 47 50 50 49 48 48 48 49 48
164 163 161 162 162 154 146 138 128 117 116 88 82 79 77 70 65 60 59 63 70 73 75 75 71 70 66 61 55 49 44 46 52 52 52 53 50 48 46 45 46 45 45
167 169 168 169 168 166 159 155 150 141 126 84 91 86 79 68 63 59 53 53 62 70 75 78 79 82 80 75 67 61 60 61 58 56 54 56 55 52 49 48 46 45 44
173 174 177 174 173 173 170 168 161 157 140 108 104 104 88 73 63 58 57 57 53 61 70 75 77 78 81 82 80 76 72 67 66 66 64 62 58 53 53 51 48 45 44
177 182 187 186 182 174 180 179 175 170 158 140 127 119 95 71 67 63 67 58 55 61 63 66 70 73 73 75 75 73 70 66 63 62 64 64 58 55 49 47 45 42 39
175 187 185 198 192 186 186 187 189 182 169 155 151 141 107 85 71 69 67 60 63 68 67 65 62 64 68 67 64 62 63 66 60 59 56 55 55 56 58 58 56 49 43
184 191 192 201 205 205 198 198 200 201 195 187 176 162 150 120 95 81 62 60 61 76 68 64 64 64 62 61 61 58 54 54 52 53 54 51 43 44 41 44 46 46 55
195 200 203 203 204 204 206 212 210 208 206 200 199 194 197 181 145 129 50 61 70 77 69 61 60 65 62 59 55 53 51 54 54 56 56 46 43 43 37 34 33 29 27
203 207 210 212 211 210 208 215 213 219 220 221 213 207 211 214 194 178 242 16 109 94 85 71 61 65 61 55 52 52 51 52 51 55 61 53 56 57 50 49 41 37 27
213 216 220 222 228 219 215 215 220 221 221 214 211 207 217 212 227 218 211 275 212 163 142 84 52 55 51 41 42 45 49 50 50 50 59 54 42 35 37 35 36 33 28
222 224 226 226 229 227 221 220 224 225 227 220 217 232 232 215 216 232 205 247 267 208 189 188 151 44 52 42 35 43 45 47 47 47 52 37 29 33 35 30 30 37 40
227 230 230 231 231 229 228 231 220 224 222 221 222 229 231 233 229 228 205 247 258 243 244 256 224 100 114 7 22 56 52 53 50 45 43 42 37 36 32 26 28 29 35
229 231 231 232 233 233 232 228 222 218 220 224 226 226 231 233 229 219 216 244 244 238 228 220 198 173 145 67 77 92 84 76 68 62 53 41 36 32 28 26 24 22 23
232 233 235 234 234 234 233 229 223 219 220 222 224 221 223 227 229 223 238 237 247 235 230 216 227 172 157 138 131 119 102 85 68 53 41 34 29 25 20 18 15 16 13
235 235 236 236 236 236 232 226 222 218 220 222 221 219 224 222 222 236 229 241 233 233 215 213 178 175 164 149 133 119 97 81 63 47 34 26 18 17 14 16 14 11 7
239 239 239 239 238 236 230 220 218 215 217 218 223 222 221 224 230 217 232 245 232 220 202 184 183 180 160 147 139 121 107 86 60 40 20 13 14 12 10 10 8 4 4
238 239 240 240 238 234 225 219 209 210 218 218 215 218 218 209 225 230 233 234 215 199 189 184 186 167 162 154 142 134 125 99 46 11 5 8 8 6 4 1 1 5 6
239 238 238 239 238 233 219 215 207 209 213 217 218 222 222 226 224 226 225 212 201 192 191 183 177 171 159 156 156 146 145 143 358 359 5 3 2 3 1 3 7 5 4
241 240 238 237 236 234 222 218 213 211 212 214 217 215 217 221 227 218 211 207 200 191 185 179 183 177 169 166 180 176 177 213 259 319 344 356 0 0 358 1 0 359 358
240 239 238 236 234 231 222 214 210 209 213 215 212 216 218 221 214 209 206 204 196 186 184 177 177 182 185 186 188 200 179 192 191 254 314 348 350 353 358 357 358 358 358
244 240 237 233 232 229 223 213 215 220 210 211 216 214 216 215 211 206 202 195 188 184 185 181 176 182 185 193 186 199 203 198 182 191 234 317 338 344 351 354 356 356 356
243 239 235 229 228 227 220 216 216 216 220 216 215 216 214 213 208 201 193 188 187 184 185 184 184 185 189 192 191 187 182 177 170 173 196 319 336 346 351 352 352 352 351
244 237 232 228 226 225 220 216 214 215 214 217 214 212 210 209 202 193 188 188 188 189 191 188 186 185 185 182 179 182 189 179 53 354 332 326 333 341 341 340 342 342 343